Flag for Japan Weather past 2 weeks in Suzuka, Japan

Now
88 °F

Warm.


Feels Like: 97 °F
Forecast: 75 / 89 °F
Wind: 3 mph from Southwest

Location: Tsu

Current Time: Aug 21, 2014 at 8:12:56 PM

Latest Report: Aug 21, 2014 at 7:00 PM


Visibility: N/A

Pressure: 29.89 "Hg

Humidity: 66%

Dew point: 75 °F

Location of SuzukaLocation

Historic Weather in Suzuka — Graph

°F

Suzuka temperature yesterday

Maximum temperature yesterday: 90 °F (at 4:00 PM)
Minimum temperature yesterday: 76 °F (at 5:00 AM)
Average temperature yesterday: 84 °F

Past Weeks' High & Low Weather Summary

 TemperatureHumidityPressure
High92 °F (Aug 11, 2:00 PM)97% (Aug 14, 11:00 AM)30.01 "Hg (Aug 14, 11:00 AM)
Low72 °F (Aug 9, 9:00 AM)44% (Aug 11, 2:00 PM)29.21 "Hg (Aug 10, 1:00 PM)
Average81 °F82%29.78 "Hg
* Reported Aug 6 6:00 PM — Aug 21 6:00 PM, Suzuka, Weather by CustomWeather, © 2014

Note: Actual official high and low records may vary slightly from our data, if they occured in-between our weather recording intervals... More about our weather records

Advertising

Suzuka weather history for previous 24 hours

 ConditionsComfort  
Time TempWeatherWind HumidityBarometerVisibility
6:00 PM
Aug 21
86 °FWarm.6 mph75%29.88 "HgN/A
5:00 PM87 °FWarm.7 mph73%29.88 "HgN/A
4:00 PM87 °FWarm.8 mph73%29.88 "HgN/A
3:00 PM87 °FOvercast.9 mph72%29.88 "Hg19 mi
2:00 PM88 °FHot.6 mph66%29.90 "HgN/A
1:00 PM88 °FHot.8 mph70%29.91 "HgN/A
12:00 PM89 °FHot.9 mph63%29.92 "HgN/A
11:00 AM87 °FWarm.5 mph72%29.93 "HgN/A
10:00 AM87 °FWarm.5 mph63%29.94 "HgN/A
9:00 AM85 °FOvercast.3 mph70%29.95 "Hg12 mi
8:00 AM85 °FWarm.3 mph72%29.96 "HgN/A
7:00 AM83 °FWarm.3 mph76%29.96 "HgN/A
6:00 AM81 °FWarm.5 mph79%29.94 "HgN/A
5:00 AM82 °FWarm.2 mph79%29.93 "HgN/A
4:00 AM81 °FWarm.3 mph80%29.93 "HgN/A
3:00 AM82 °FWarm.2 mph77%29.92 "HgN/A
2:00 AM83 °FWarm.5 mph74%29.93 "HgN/A
1:00 AM83 °FWarm.3 mph76%29.93 "HgN/A
12:00 AM83 °FWarm.2 mph73%29.93 "HgN/A
11:00 PM
Aug 20
84 °FWarm.3 mph69%29.94 "HgN/A
10:00 PM84 °FWarm.2 mph70%29.94 "HgN/A
9:00 PM85 °FPassing clouds.8 mph69%29.94 "Hg12 mi
8:00 PM85 °FWarm.6 mph74%29.93 "HgN/A
Weather by CustomWeather, © 2014

See weather overviewHow to use our weather pages